GW0870 Weather Reports


Display with metric or nautical units.
time (UTC)temp
F
wind
direction
speed
MPH
gust
MPH
rain 1hr
in
rain 24hr
in
rain mn
in
humidity
%
barometer
mb
20260506191545 68 183 1.0 8.0 0.00 0.10 0.10 84 1012.8
20260506190046 67 235 2.0 8.0 0.00 0.10 0.10 86 1012.5
20260506184545 65 94 1.0 7.0 0.00 0.10 0.10 89 1012.8
20260506183102 64 269 1.0 7.0 0.02 0.10 0.10 90 1012.3
20260506181557 64 144 2.0 8.0 0.02 0.10 0.10 89 1012.4
20260506180041 64 140 2.0 10.0 0.10 0.10 0.10 90 1014.1
20260506174547 63 217 1.0 6.0 0.10 0.10 0.10 89 1014.5
20260506173053 63 252 2.0 5.0 0.08 0.08 0.08 86 1015.1
20260506171548 67 175 4.0 14.0 0.08 0.08 0.08 77 1015.5
20260506170050 72 244 4.0 15.0 0.00 0.00 0.00 62 1015.0
20260506164551 74 234 2.0 12.0 0.00 0.00 0.00 56 1014.1
20260506163051 75 229 4.0 9.0 0.00 0.00 0.00 53 1014.0
20260506161551 75 177 2.0 11.0 0.00 0.00 0.00 57 1014.0
20260506160117 74 201 4.0 11.0 0.00 0.00 0.00 60 1014.1
20260506154545 73 283 4.0 12.0 0.00 0.00 0.00 64 1013.8
20260506153051 71 268 4.0 9.0 0.00 0.00 0.00 68 1013.7
20260506151605 70 215 3.0 8.0 0.00 0.00 0.00 68 1013.9
20260506150051 69 227 2.0 10.0 0.00 0.00 0.00 70 1014.0
20260506144552 68 105 4.0 11.0 0.00 0.00 0.00 71 1014.1
20260506143056 68 217 1.0 9.0 0.00 0.00 0.00 71 1014.1
20260506141550 68 225 3.0 8.0 0.00 0.00 0.00 71 1014.1
20260506140106 68 159 2.0 6.0 0.00 0.00 0.00 71 1013.7
20260506134545 68 236 2.0 8.0 0.00 0.00 0.00 71 1013.8
20260506133048 66 279 2.0 7.0 0.00 0.00 0.00 73 1013.7
20260506131552 65 234 2.0 7.0 0.00 0.00 0.00 74 1013.7
20260506130049 65 130 2.0 11.0 0.00 0.00 0.00 74 1013.3
20260506124540 64 161 2.0 7.0 0.00 0.00 0.00 74 1014.0
20260506123039 64 264 2.0 7.0 0.00 0.00 0.00 74 1014.2
20260506121547 64 202 4.0 9.0 0.00 0.00 0.00 74 1014.6
20260506120044 63 279 2.0 8.0 0.00 0.00 0.00 73 1014.5
20260506114550 63 141 1.0 3.0 0.00 0.00 0.00 74 1014.1
20260506113047 62 230 1.0 6.0 0.00 0.00 0.00 74 1013.9
20260506111550 62 209 1.0 5.0 0.00 0.00 0.00 75 1013.6
20260506110056 62 237 1.0 5.0 0.00 0.00 0.00 75 1013.4
20260506104558 62 223 0.0 9.0 0.00 0.00 0.00 75 1013.3
20260506103048 62 196 2.0 6.0 0.00 0.00 0.00 75 1012.9
20260506101556 62 209 1.0 3.0 0.00 0.00 0.00 75 1013.1
20260506100045 62 148 1.0 5.0 0.00 0.00 0.00 75 1013.0
20260506094554 62 277 1.0 9.0 0.00 0.00 0.00 75 1013.1
20260506093050 62 226 1.0 8.0 0.00 0.00 0.00 74 1013.2
20260506091544 62 178 2.0 8.0 0.00 0.00 0.00 74 1013.3
20260506090049 62 294 1.0 4.0 0.00 0.00 0.00 75 1013.6
20260506084547 62 0 1.0 3.0 0.00 0.00 0.00 74 1013.8
20260506083041 62 137 1.0 6.0 0.00 0.00 0.00 74 1013.9
20260506081549 63 210 0.0 6.0 0.00 0.00 0.00 73 1013.8
20260506073050 64 132 1.0 6.0 0.00 0.00 0.00 72 1014.0
20260506071557 64 270 2.0 7.0 0.00 0.00 0.00 72 1013.7
20260506061543 64 236 2.0 10.0 0.00 0.00 0.00 71 1014.1
20260506044541 66 113 0.0 4.0 0.00 0.00 0.00 65 1014.5
20260506043040 66 141 1.0 6.0 0.00 0.00 0.00 65 1014.6
20260506041557 66 180 1.0 5.0 0.00 0.00 0.00 64 1014.4
20260506040039 67 158 0.0 6.0 0.00 0.00 0.00 63 1014.2
20260506034545 67 283 2.0 7.0 0.00 0.00 0.00 61 1014.3
20260506033042 68 242 2.0 8.0 0.00 0.00 0.00 60 1014.1
20260506031542 68 253 2.0 8.0 0.00 0.00 0.00 57 1014.1
20260506030042 68 247 1.0 8.0 0.00 0.00 0.00 55 1014.0
20260506024542 67 184 1.0 5.0 0.00 0.00 0.00 56 1014.0
20260506023046 65 0 0.0 3.0 0.00 0.00 0.00 58 1014.3
20260506021545 65 0 0.0 4.0 0.00 0.00 0.00 59 1014.3
20260506020049 64 0 0.0 0.0 0.00 0.00 0.00 60 1014.2
20260506014549 65 0 0.0 0.0 0.00 0.00 0.00 56 1014.2
20260506013047 67 0 0.0 0.0 0.00 0.00 0.00 51 1014.0
20260506011545 69 0 0.0 0.0 0.00 0.00 0.00 49 1013.9
20260506010048 71 0 0.0 0.0 0.00 0.00 0.00 45 1013.8
20260506004545 72 188 0.0 6.0 0.00 0.00 0.00 43 1013.5
20260506003042 73 0 0.0 4.0 0.00 0.00 0.00 42 1013.4
20260506001559 74 148 1.0 6.0 0.00 0.00 0.00 41 1013.3
20260506000048 75 155 2.0 8.0 0.00 0.00 0.00 40 1013.2
20260505234553 75 126 1.0 6.0 0.00 0.00 0.00 40 1013.1
20260505233054 76 211 1.0 4.0 0.00 0.00 0.00 39 1013.1
20260505231551 77 172 3.0 12.0 0.00 0.00 0.00 37 1013.2
20260505230042 77 164 5.0 14.0 0.00 0.00 0.00 36 1013.1
20260505224542 78 74 2.0 8.0 0.00 0.00 0.00 36 1013.2
20260505223054 79 119 4.0 12.0 0.00 0.00 0.00 36 1013.2
20260505221544 79 155 3.0 9.0 0.00 0.00 0.00 36 1013.4
20260505220047 79 194 2.0 11.0 0.00 0.00 0.00 36 1013.4
20260505214601 80 206 3.0 10.0 0.00 0.00 0.00 35 1013.5
20260505213053 79 242 5.0 16.0 0.00 0.00 0.00 36 1013.7
20260505211548 79 159 6.0 13.0 0.00 0.00 0.00 35 1013.5
20260505210051 79 223 3.0 10.0 0.00 0.00 0.00 36 1013.5
20260505204549 79 190 3.0 14.0 0.00 0.00 0.00 37 1013.5
20260505203047 79 229 3.0 12.0 0.00 0.00 0.00 36 1013.7
20260505201557 79 148 6.0 15.0 0.00 0.00 0.00 35 1014.1
20260505200040 80 247 4.0 10.0 0.00 0.00 0.00 35 1014.2
20260505194541 80 153 5.0 12.0 0.00 0.00 0.00 35 1014.2
20260505193045 80 95 3.0 9.0 0.00 0.00 0.00 37 1014.5